Time,TemperatureF,DewpointF,PressureIn,WindDirection,WindDirectionDegrees,WindSpeedMPH,WindSpeedGustMPH,Humidity,HourlyPrecipIn,Conditions,Clouds,dailyrainin,SoftwareType,DateUTC
2013-06-26 00:53:00,72.4,12.8,29.92,East,90,0.0,0.0,1,0.11,,,0.00,WUHU216HW,2013-06-26 04:53:00,
2013-06-26 00:54:00,72.4,12.8,29.92,East,90,0.0,0.0,1,0.11,,,0.00,WUHU216HW,2013-06-26 04:54:00,
2013-06-26 00:55:00,72.4,12.8,29.92,East,90,0.0,0.0,1,0.11,,,0.00,WUHU216HW,2013-06-26 04:55:00,
2013-06-26 00:59:00,72.4,12.8,29.92,East,90,0.0,0.0,1,0.11,,,0.00,WUHU216HW,2013-06-26 04:59:00,
2013-06-26 01:00:00,72.2,12.7,29.86,SW,225,0.0,0.0,1,0.01,,,0.01,WUHU216HW,2013-06-26 05:00:00,
2013-06-26 01:02:00,72.0,12.5,29.86,SW,225,0.0,0.0,1,0.01,,,0.01,WUHU216HW,2013-06-26 05:02:00,
2013-06-26 01:04:00,72.0,12.5,29.85,SW,225,0.0,0.0,1,0.01,,,0.01,WUHU216HW,2013-06-26 05:04:00,
2013-06-26 01:05:00,72.0,12.5,29.85,SW,225,0.0,0.0,1,0.01,,,0.01,WUHU216HW,2013-06-26 05:05:00,
2013-06-26 01:08:00,72.0,12.5,29.85,SW,225,0.0,0.0,1,0.01,,,0.01,WUHU216HW,2013-06-26 05:08:00,
2013-06-26 01:09:00,72.0,12.5,29.86,SW,225,0.0,0.0,1,0.01,,,0.01,WUHU216HW,2013-06-26 05:09:00,
2013-06-26 01:10:00,72.0,12.5,29.86,SW,225,0.0,0.0,1,0.01,,,0.01,WUHU216HW,2013-06-26 05:10:00,
2013-06-26 01:11:00,72.0,12.5,29.86,SW,225,0.0,0.0,1,0.01,,,0.01,WUHU216HW,2013-06-26 05:11:00,
2013-06-26 01:14:00,71.8,12.4,29.86,SW,225,0.0,0.0,1,0.01,,,0.01,WUHU216HW,2013-06-26 05:14:00,
2013-06-26 01:15:00,71.8,12.4,29.85,SW,225,0.0,0.0,1,0.01,,,0.01,WUHU216HW,2013-06-26 05:15:00,
2013-06-26 01:16:00,71.8,12.4,29.85,SW,225,0.0,0.0,1,0.00,,,0.01,WUHU216HW,2013-06-26 05:16:00,
2013-06-26 01:17:00,71.8,12.4,29.85,SW,225,0.0,0.0,1,0.00,,,0.01,WUHU216HW,2013-06-26 05:17:00,
2013-06-26 01:20:00,71.6,12.2,29.85,SW,225,0.0,0.0,1,0.00,,,0.01,WUHU216HW,2013-06-26 05:20:00,
2013-06-26 01:21:00,71.6,12.2,29.85,SW,225,0.0,0.0,1,0.00,,,0.01,WUHU216HW,2013-06-26 05:21:00,
2013-06-26 01:22:00,71.6,12.2,29.85,SW,225,0.0,0.0,1,0.00,,,0.01,WUHU216HW,2013-06-26 05:22:00,
2013-06-26 01:25:00,71.6,12.2,29.86,SW,225,0.0,0.0,1,0.00,,,0.01,WUHU216HW,2013-06-26 05:25:00,
2013-06-26 01:26:00,71.6,12.2,29.85,SW,225,0.0,0.0,1,0.00,,,0.01,WUHU216HW,2013-06-26 05:26:00,
2013-06-26 01:27:00,71.6,12.2,29.86,SW,225,0.0,0.0,1,0.00,,,0.01,WUHU216HW,2013-06-26 05:27:00,
2013-06-26 01:30:00,71.5,12.1,29.86,SW,225,0.0,0.0,1,0.00,,,0.01,WUHU216HW,2013-06-26 05:30:00,
2013-06-26 01:32:00,71.6,12.2,29.86,SW,225,0.0,0.0,1,0.00,,,0.01,WUHU216HW,2013-06-26 05:32:00,
2013-06-26 01:33:00,71.5,12.1,29.86,SW,225,0.0,0.0,1,0.00,,,0.01,WUHU216HW,2013-06-26 05:33:00,
2013-06-26 01:34:00,71.5,12.1,29.86,SW,225,0.0,0.0,1,0.00,,,0.01,WUHU216HW,2013-06-26 05:34:00,
2013-06-26 01:36:00,71.5,12.1,29.86,SW,225,0.0,0.0,1,0.00,,,0.01,WUHU216HW,2013-06-26 05:36:00,
2013-06-26 01:37:00,71.5,12.1,29.86,SW,225,0.0,0.0,1,0.00,,,0.01,WUHU216HW,2013-06-26 05:37:00,
2013-06-26 01:38:00,71.5,12.1,29.86,SW,225,0.0,0.0,1,0.00,,,0.01,WUHU216HW,2013-06-26 05:38:00,
2013-06-26 01:39:00,71.5,12.1,29.86,SW,225,0.0,0.0,1,0.00,,,0.01,WUHU216HW,2013-06-26 05:39:00,
2013-06-26 01:40:00,71.3,12.0,29.86,SW,225,0.0,0.0,1,0.00,,,0.01,WUHU216HW,2013-06-26 05:40:00,
2013-06-26 01:41:00,71.3,12.0,29.86,SW,225,0.0,0.0,1,0.00,,,0.01,WUHU216HW,2013-06-26 05:41:00,
2013-06-26 01:42:00,71.3,12.0,29.86,SW,225,0.0,0.0,1,0.00,,,0.01,WUHU216HW,2013-06-26 05:42:00,
2013-06-26 01:45:00,71.3,12.0,29.86,SW,225,0.0,0.0,1,0.00,,,0.01,WUHU216HW,2013-06-26 05:45:00,
2013-06-26 01:46:00,71.3,12.0,29.86,SW,225,0.0,0.0,1,0.00,,,0.01,WUHU216HW,2013-06-26 05:46:00,
2013-06-26 01:47:00,71.3,12.0,29.86,SW,225,0.0,0.0,1,0.00,,,0.01,WUHU216HW,2013-06-26 05:47:00,
2013-06-26 01:50:00,71.3,12.0,29.85,SW,225,0.0,0.0,1,0.00,,,0.01,WUHU216HW,2013-06-26 05:50:00,
2013-06-26 01:51:00,71.3,12.0,29.86,SW,225,0.0,0.0,1,0.00,,,0.01,WUHU216HW,2013-06-26 05:51:00,
2013-06-26 01:53:00,71.3,12.0,29.85,SW,225,0.0,0.0,1,0.00,,,0.01,WUHU216HW,2013-06-26 05:53:00,
2013-06-26 01:55:00,71.1,11.8,29.86,SW,225,0.0,0.0,1,0.00,,,0.01,WUHU216HW,2013-06-26 05:55:00,
2013-06-26 01:56:00,71.1,11.8,29.86,SW,225,0.0,0.0,1,0.00,,,0.01,WUHU216HW,2013-06-26 05:56:00,
2013-06-26 01:57:00,71.1,11.8,29.85,SW,225,0.0,0.0,1,0.00,,,0.01,WUHU216HW,2013-06-26 05:57:00,
2013-06-26 01:58:00,71.3,12.0,29.85,SW,225,0.0,0.0,1,0.00,,,0.01,WUHU216HW,2013-06-26 05:58:00,
2013-06-26 04:27:00,71.3,12.0,29.85,SW,225,0.0,0.0,1,0.00,,,0.01,WUHU216HW,2013-06-26 08:27:00,
2013-06-26 04:29:00,71.3,12.0,29.85,SW,225,0.0,0.0,1,0.00,,,0.01,WUHU216HW,2013-06-26 08:29:00,
2013-06-26 04:32:00,71.3,12.0,29.85,SW,225,0.0,0.0,1,0.00,,,0.01,WUHU216HW,2013-06-26 08:32:00,
2013-06-26 04:33:00,71.3,12.0,29.85,SW,225,0.0,0.0,1,0.00,,,0.01,WUHU216HW,2013-06-26 08:33:00,
2013-06-26 04:36:00,71.3,12.0,29.85,SW,225,0.0,0.0,1,0.00,,,0.01,WUHU216HW,2013-06-26 08:36:00,
2013-06-26 05:00:00,69.8,10.8,29.85,NE,45,0.0,0.0,1,0.00,,,0.01,WUHU216HW,2013-06-26 09:00:00,
2013-06-26 05:01:00,69.8,10.8,29.85,NE,45,0.0,0.0,1,0.00,,,0.01,WUHU216HW,2013-06-26 09:01:00,
2013-06-26 05:02:00,69.8,10.8,29.85,NE,45,0.0,0.0,1,0.00,,,0.01,WUHU216HW,2013-06-26 09:02:00,
2013-06-26 05:05:00,69.8,10.8,29.85,NE,45,0.0,0.0,1,0.00,,,0.01,WUHU216HW,2013-06-26 09:05:00,
2013-06-26 05:06:00,69.8,10.8,29.85,NE,45,0.0,0.0,1,0.00,,,0.01,WUHU216HW,2013-06-26 09:06:00,
2013-06-26 05:07:00,69.8,10.8,29.85,NE,45,0.0,0.0,1,0.00,,,0.01,WUHU216HW,2013-06-26 09:07:00,
2013-06-26 05:10:00,69.8,10.8,29.86,NE,45,0.0,0.0,1,0.00,,,0.01,WUHU216HW,2013-06-26 09:10:00,
2013-06-26 05:11:00,69.8,10.8,29.86,NE,45,0.0,0.0,1,0.00,,,0.01,WUHU216HW,2013-06-26 09:11:00,
2013-06-26 05:12:00,69.8,10.8,29.86,NE,45,0.0,0.0,1,0.00,,,0.01,WUHU216HW,2013-06-26 09:12:00,
2013-06-26 05:15:00,69.8,10.8,29.86,NE,45,0.0,0.0,1,0.00,,,0.01,WUHU216HW,2013-06-26 09:15:00,
2013-06-26 05:16:00,69.8,10.8,29.86,NE,45,0.0,0.0,1,0.00,,,0.01,WUHU216HW,2013-06-26 09:16:00,
2013-06-26 05:18:00,69.8,10.8,29.86,NE,45,0.0,0.0,1,0.00,,,0.01,WUHU216HW,2013-06-26 09:18:00,
2013-06-26 05:19:00,69.8,10.8,29.86,NE,45,0.0,0.0,1,0.00,,,0.01,WUHU216HW,2013-06-26 09:19:00,
2013-06-26 05:22:00,69.8,10.8,29.86,NE,45,0.0,0.0,1,0.00,,,0.01,WUHU216HW,2013-06-26 09:22:00,
2013-06-26 05:23:00,69.8,10.8,29.86,NE,45,0.0,0.0,1,0.00,,,0.01,WUHU216HW,2013-06-26 09:23:00,
2013-06-26 05:26:00,69.8,10.8,29.86,NE,45,0.0,0.0,1,0.00,,,0.01,WUHU216HW,2013-06-26 09:26:00,
2013-06-26 05:27:00,69.7,10.7,29.86,NE,45,0.0,0.0,1,0.00,,,0.01,WUHU216HW,2013-06-26 09:27:00,
2013-06-26 05:30:00,69.7,10.7,29.86,NE,45,0.0,0.0,1,0.00,,,0.01,WUHU216HW,2013-06-26 09:30:00,
2013-06-26 05:31:00,69.7,10.7,29.86,NE,45,0.0,0.0,1,0.00,,,0.01,WUHU216HW,2013-06-26 09:31:00,
2013-06-26 07:02:00,69.7,10.7,29.86,NE,45,0.0,0.0,1,0.00,,,0.01,WUHU216HW,2013-06-26 11:02:00,
2013-06-26 07:03:00,69.7,10.7,29.86,NE,45,0.0,0.0,1,0.00,,,0.01,WUHU216HW,2013-06-26 11:03:00,
2013-06-26 07:04:00,69.7,10.7,29.86,NE,45,0.0,0.0,1,0.00,,,0.01,WUHU216HW,2013-06-26 11:04:00,
2013-06-26 07:07:00,69.7,10.7,29.86,NE,45,0.0,0.0,1,0.00,,,0.01,WUHU216HW,2013-06-26 11:07:00,
2013-06-26 07:09:00,69.7,10.7,29.86,NE,45,0.0,0.0,1,0.00,,,0.01,WUHU216HW,2013-06-26 11:09:00,
2013-06-26 08:00:00,73.3,13.5,29.86,NNW,338,0.0,0.0,1,0.00,,,0.01,WUHU216HW,2013-06-26 12:00:00,
2013-06-26 08:01:00,73.3,13.5,29.86,NNW,338,0.0,0.0,1,0.00,,,0.01,WUHU216HW,2013-06-26 12:01:00,
2013-06-26 08:02:00,73.4,13.7,29.86,NNW,338,0.0,0.0,1,0.00,,,0.01,WUHU216HW,2013-06-26 12:02:00,
2013-06-26 08:05:00,73.4,13.7,29.86,NNW,338,0.0,0.0,1,0.00,,,0.01,WUHU216HW,2013-06-26 12:05:00,
2013-06-26 08:06:00,73.4,13.7,29.86,NNW,338,0.0,0.0,1,0.00,,,0.01,WUHU216HW,2013-06-26 12:06:00,
2013-06-26 08:07:00,73.6,13.8,29.86,NNW,338,0.0,0.0,1,0.00,,,0.01,WUHU216HW,2013-06-26 12:07:00,
2013-06-26 08:11:00,73.8,14.0,29.86,NNW,338,0.0,0.0,1,0.00,,,0.01,WUHU216HW,2013-06-26 12:11:00,
2013-06-26 08:12:00,73.8,14.0,29.86,NNW,338,0.0,0.0,1,0.00,,,0.01,WUHU216HW,2013-06-26 12:12:00,
2013-06-26 08:13:00,73.8,14.0,29.86,NNW,338,0.0,0.0,1,0.00,,,0.01,WUHU216HW,2013-06-26 12:13:00,
2013-06-26 08:17:00,74.0,14.0,29.85,NNW,338,0.0,0.0,1,0.00,,,0.01,WUHU216HW,2013-06-26 12:17:00,
2013-06-26 08:19:00,74.0,14.0,29.85,NNW,338,0.0,0.0,1,0.00,,,0.01,WUHU216HW,2013-06-26 12:19:00,
2013-06-26 08:20:00,74.2,14.2,29.85,NNW,338,0.0,0.0,1,0.00,,,0.01,WUHU216HW,2013-06-26 12:20:00,
2013-06-26 08:22:00,74.3,14.3,29.85,NNW,338,0.0,0.0,1,0.00,,,0.01,WUHU216HW,2013-06-26 12:22:00,
2013-06-26 08:23:00,74.3,14.3,29.85,NNW,338,0.0,0.0,1,0.00,,,0.01,WUHU216HW,2013-06-26 12:23:00,
2013-06-26 08:25:00,74.5,14.4,29.85,NNW,338,0.0,0.0,1,0.00,,,0.01,WUHU216HW,2013-06-26 12:25:00,
2013-06-26 08:26:00,74.5,14.4,29.86,NNW,338,0.0,0.0,1,0.00,,,0.01,WUHU216HW,2013-06-26 12:26:00,
2013-06-26 08:28:00,74.7,14.6,29.86,NNW,338,0.0,0.0,1,0.00,,,0.01,WUHU216HW,2013-06-26 12:28:00,
2013-06-26 08:30:00,74.7,14.6,29.86,NNW,338,0.0,0.0,1,0.00,,,0.01,WUHU216HW,2013-06-26 12:30:00,
2013-06-26 08:31:00,74.7,14.6,29.85,NNW,338,0.0,0.0,1,0.00,,,0.01,WUHU216HW,2013-06-26 12:31:00,
2013-06-26 08:32:00,74.9,14.7,29.85,NNW,338,0.0,0.0,1,0.00,,,0.01,WUHU216HW,2013-06-26 12:32:00,
2013-06-26 08:33:00,74.9,14.7,29.85,NNW,338,0.0,0.0,1,0.00,,,0.01,WUHU216HW,2013-06-26 12:33:00,
2013-06-26 08:35:00,75.2,14.9,29.85,NNW,338,0.0,0.0,1,0.00,,,0.01,WUHU216HW,2013-06-26 12:35:00,
2013-06-26 08:37:00,75.2,14.9,29.86,NNW,338,0.0,0.0,1,0.00,,,0.01,WUHU216HW,2013-06-26 12:37:00,
2013-06-26 08:39:00,75.4,15.1,29.86,NNW,338,0.0,0.0,1,0.00,,,0.01,WUHU216HW,2013-06-26 12:39:00,
2013-06-26 08:41:00,75.6,15.2,29.86,NNW,338,0.0,0.0,1,0.00,,,0.01,WUHU216HW,2013-06-26 12:41:00,
2013-06-26 08:42:00,75.6,15.2,29.86,NNW,338,0.0,0.0,1,0.00,,,0.01,WUHU216HW,2013-06-26 12:42:00,
2013-06-26 08:43:00,75.8,15.4,29.86,NNW,338,0.0,0.0,1,0.00,,,0.01,WUHU216HW,2013-06-26 12:43:00,
2013-06-26 08:45:00,75.8,15.4,29.86,ENE,68,0.0,0.0,1,0.00,,,0.01,WUHU216HW,2013-06-26 12:45:00,
2013-06-26 08:47:00,76.0,15.5,29.86,ENE,68,0.0,0.0,1,0.00,,,0.01,WUHU216HW,2013-06-26 12:47:00,
2013-06-26 08:48:00,76.0,15.5,29.85,ENE,68,0.0,0.0,1,0.00,,,0.01,WUHU216HW,2013-06-26 12:48:00,
2013-06-26 08:51:00,76.0,15.5,29.85,North,0,0.0,0.0,1,0.00,,,0.01,WUHU216HW,2013-06-26 12:51:00,
2013-06-26 08:52:00,76.1,15.7,29.85,North,0,0.0,0.0,1,0.00,,,0.01,WUHU216HW,2013-06-26 12:52:00,
2013-06-26 08:53:00,76.1,15.7,29.85,North,0,0.0,0.0,1,0.00,,,0.01,WUHU216HW,2013-06-26 12:53:00,
2013-06-26 08:55:00,76.1,15.7,29.86,North,0,0.0,0.0,1,0.00,,,0.01,WUHU216HW,2013-06-26 12:55:00,
2013-06-26 08:57:00,76.3,15.9,29.86,North,0,0.0,0.0,1,0.00,,,0.01,WUHU216HW,2013-06-26 12:57:00,
2013-06-26 08:58:00,76.5,15.9,29.86,North,0,0.0,0.0,1,0.00,,,0.01,WUHU216HW,2013-06-26 12:58:00,
2013-06-26 08:59:00,76.5,15.9,29.86,North,0,0.0,0.0,1,0.00,,,0.01,WUHU216HW,2013-06-26 12:59:00,
2013-06-26 09:00:00,76.5,15.9,29.86,North,0,0.0,0.0,1,0.00,,,0.01,WUHU216HW,2013-06-26 13:00:00,
2013-06-26 09:01:00,76.5,15.9,29.86,North,0,0.0,0.0,1,0.00,,,0.01,WUHU216HW,2013-06-26 13:01:00,
2013-06-26 09:03:00,76.7,16.1,29.86,North,0,0.0,0.0,1,0.00,,,0.01,WUHU216HW,2013-06-26 13:03:00,
2013-06-26 09:05:00,76.7,16.1,29.86,North,0,0.0,0.0,1,0.00,,,0.01,WUHU216HW,2013-06-26 13:05:00,
2013-06-26 09:06:00,76.9,16.2,29.86,North,0,0.0,0.0,1,0.00,,,0.01,WUHU216HW,2013-06-26 13:06:00,
2013-06-26 09:09:00,77.0,16.4,29.86,North,0,0.0,0.0,1,0.00,,,0.01,WUHU216HW,2013-06-26 13:09:00,
2013-06-26 09:10:00,77.0,16.4,29.85,North,0,0.0,0.0,1,0.00,,,0.01,WUHU216HW,2013-06-26 13:10:00,
2013-06-26 09:11:00,77.2,16.5,29.85,North,0,0.0,0.0,1,0.00,,,0.01,WUHU216HW,2013-06-26 13:11:00,
2013-06-26 09:12:00,77.4,16.7,29.85,North,0,0.0,0.0,1,0.00,,,0.01,WUHU216HW,2013-06-26 13:12:00,
2013-06-26 09:15:00,77.6,16.7,29.86,North,0,0.0,0.0,1,0.00,,,0.01,WUHU216HW,2013-06-26 13:15:00,
2013-06-26 09:16:00,77.6,16.7,29.86,North,0,0.0,0.0,1,0.00,,,0.01,WUHU216HW,2013-06-26 13:16:00,
2013-06-26 09:18:00,77.8,16.9,29.85,North,0,0.0,0.0,1,0.00,,,0.01,WUHU216HW,2013-06-26 13:18:00,
2013-06-26 09:21:00,77.9,17.0,29.85,North,0,0.0,0.0,1,0.00,,,0.01,WUHU216HW,2013-06-26 13:21:00,
2013-06-26 09:22:00,78.1,17.1,29.85,North,0,0.0,0.0,1,0.00,,,0.01,WUHU216HW,2013-06-26 13:22:00,
2013-06-26 09:23:00,78.1,17.1,29.85,North,0,0.0,0.0,1,0.00,,,0.01,WUHU216HW,2013-06-26 13:23:00,
2013-06-26 09:26:00,78.3,17.3,29.85,North,0,0.0,0.0,1,0.00,,,0.01,WUHU216HW,2013-06-26 13:26:00,
2013-06-26 09:27:00,78.3,17.3,29.85,North,0,0.0,0.0,1,0.00,,,0.01,WUHU216HW,2013-06-26 13:27:00,
2013-06-26 09:28:00,78.5,17.4,29.85,North,0,0.0,0.0,1,0.00,,,0.01,WUHU216HW,2013-06-26 13:28:00,
2013-06-26 09:29:00,78.5,17.4,29.85,North,0,0.0,0.0,1,0.00,,,0.01,WUHU216HW,2013-06-26 13:29:00,
2013-06-26 09:31:00,78.8,17.6,29.85,North,0,0.0,0.0,1,0.00,,,0.01,WUHU216HW,2013-06-26 13:31:00,
2013-06-26 09:32:00,78.8,17.6,29.85,North,0,0.0,0.0,1,0.00,,,0.01,WUHU216HW,2013-06-26 13:32:00,
2013-06-26 09:33:00,78.8,17.6,29.85,North,0,0.0,0.0,1,0.00,,,0.01,WUHU216HW,2013-06-26 13:33:00,
2013-06-26 09:34:00,79.0,17.8,29.85,North,0,0.0,0.0,1,0.00,,,0.01,WUHU216HW,2013-06-26 13:34:00,
2013-06-26 09:35:00,79.0,17.8,29.85,North,0,0.0,0.0,1,0.00,,,0.01,WUHU216HW,2013-06-26 13:35:00,
2013-06-26 09:36:00,79.0,17.8,29.85,North,0,0.0,0.0,1,0.00,,,0.01,WUHU216HW,2013-06-26 13:36:00,
2013-06-26 09:37:00,79.2,17.9,29.85,North,0,0.0,0.0,1,0.00,,,0.01,WUHU216HW,2013-06-26 13:37:00,
2013-06-26 09:39:00,79.4,18.1,29.85,North,0,0.0,0.0,1,0.00,,,0.01,WUHU216HW,2013-06-26 13:39:00,
2013-06-26 09:41:00,79.6,18.2,29.85,North,0,0.0,0.0,1,0.00,,,0.01,WUHU216HW,2013-06-26 13:41:00,
2013-06-26 09:43:00,79.7,18.4,29.85,NNE,23,0.0,0.0,1,0.00,,,0.01,WUHU216HW,2013-06-26 13:43:00,
2013-06-26 09:44:00,79.9,18.6,29.85,NNE,23,0.0,0.0,1,0.00,,,0.01,WUHU216HW,2013-06-26 13:44:00,
2013-06-26 09:45:00,79.9,18.6,29.85,NNE,23,0.0,0.0,1,0.00,,,0.01,WUHU216HW,2013-06-26 13:45:00,
2013-06-26 09:47:00,80.1,18.6,29.85,NNE,23,0.0,0.0,1,0.00,,,0.01,WUHU216HW,2013-06-26 13:47:00,
2013-06-26 09:48:00,80.3,18.8,29.85,NNE,23,0.0,0.0,1,0.00,,,0.01,WUHU216HW,2013-06-26 13:48:00,
2013-06-26 09:50:00,80.5,18.9,29.85,NNE,23,0.0,0.0,1,0.00,,,0.01,WUHU216HW,2013-06-26 13:50:00,
2013-06-26 09:51:00,80.5,18.9,29.85,NNE,23,0.0,0.0,1,0.00,,,0.01,WUHU216HW,2013-06-26 13:51:00,
2013-06-26 09:52:00,80.6,19.1,29.84,NNE,23,0.0,0.0,1,0.00,,,0.01,WUHU216HW,2013-06-26 13:52:00,
2013-06-26 09:54:00,80.6,19.1,29.84,NNE,23,0.0,0.0,1,0.00,,,0.01,WUHU216HW,2013-06-26 13:54:00,
2013-06-26 09:55:00,80.6,19.1,29.84,NNE,23,0.0,0.0,1,0.00,,,0.01,WUHU216HW,2013-06-26 13:55:00,
2013-06-26 09:57:00,80.8,19.3,29.85,NNE,23,0.0,0.0,1,0.00,,,0.01,WUHU216HW,2013-06-26 13:57:00,
2013-06-26 09:58:00,81.0,19.4,29.85,NNE,23,0.0,0.0,1,0.00,,,0.01,WUHU216HW,2013-06-26 13:58:00,
2013-06-26 09:59:00,81.2,19.5,29.85,NNE,23,0.0,0.2,1,0.00,,,0.01,WUHU216HW,2013-06-26 13:59:00,
2013-06-26 10:00:00,81.2,19.5,29.85,NNE,23,0.0,0.2,1,0.00,,,0.01,WUHU216HW,2013-06-26 14:00:00,
2013-06-26 10:03:00,81.4,19.6,29.84,NNE,23,0.2,0.2,1,0.00,,,0.01,WUHU216HW,2013-06-26 14:03:00,
2013-06-26 10:04:00,81.4,19.6,29.84,NNE,23,0.0,0.2,1,0.00,,,0.01,WUHU216HW,2013-06-26 14:04:00,
2013-06-26 10:06:00,81.5,19.8,29.84,NNE,23,0.0,0.2,1,0.00,,,0.01,WUHU216HW,2013-06-26 14:06:00,
2013-06-26 10:08:00,81.7,20.0,29.85,NNE,23,0.0,0.2,1,0.00,,,0.01,WUHU216HW,2013-06-26 14:08:00,
2013-06-26 10:09:00,81.7,20.0,29.85,NNE,23,0.0,0.2,1,0.00,,,0.01,WUHU216HW,2013-06-26 14:09:00,
2013-06-26 10:10:00,81.7,20.0,29.84,NNE,23,0.0,0.2,1,0.00,,,0.01,WUHU216HW,2013-06-26 14:10:00,
2013-06-26 10:12:00,81.7,20.0,29.84,NNE,23,0.0,0.2,1,0.00,,,0.01,WUHU216HW,2013-06-26 14:12:00,
2013-06-26 10:14:00,81.9,20.1,29.85,NNE,23,0.0,0.0,1,0.00,,,0.01,WUHU216HW,2013-06-26 14:14:00,
2013-06-26 10:16:00,82.1,20.3,29.84,NNE,23,0.0,0.0,1,0.00,,,0.01,WUHU216HW,2013-06-26 14:16:00,
2013-06-26 10:18:00,82.3,20.3,29.84,NNE,23,0.0,0.0,1,0.00,,,0.01,WUHU216HW,2013-06-26 14:18:00,
2013-06-26 10:19:00,82.3,20.3,29.84,NNE,23,0.0,0.0,1,0.00,,,0.01,WUHU216HW,2013-06-26 14:19:00,
2013-06-26 10:20:00,82.4,20.5,29.84,NNE,23,0.0,0.0,1,0.00,,,0.01,WUHU216HW,2013-06-26 14:20:00,
2013-06-26 10:23:00,82.6,20.6,29.84,NNE,23,0.0,0.2,1,0.00,,,0.01,WUHU216HW,2013-06-26 14:23:00,
2013-06-26 10:24:00,82.8,20.8,29.84,NNE,23,0.0,0.2,1,0.00,,,0.01,WUHU216HW,2013-06-26 14:24:00,
2013-06-26 10:25:00,82.8,20.8,29.84,NNE,23,0.0,0.2,1,0.00,,,0.01,WUHU216HW,2013-06-26 14:25:00,
2013-06-26 10:27:00,83.2,21.1,29.84,NNE,23,0.0,0.2,1,0.00,,,0.01,WUHU216HW,2013-06-26 14:27:00,
2013-06-26 10:29:00,83.5,21.2,29.84,NNE,23,0.0,0.2,1,0.00,,,0.01,WUHU216HW,2013-06-26 14:29:00,
2013-06-26 10:30:00,83.5,21.2,29.84,NNE,23,0.0,0.2,1,0.00,,,0.01,WUHU216HW,2013-06-26 14:30:00,
2013-06-26 10:32:00,83.0,20.9,29.84,NNE,23,0.0,0.2,1,0.00,,,0.01,WUHU216HW,2013-06-26 14:32:00,
2013-06-26 10:34:00,83.3,21.2,29.84,NNE,23,0.0,0.0,1,0.00,,,0.01,WUHU216HW,2013-06-26 14:34:00,
2013-06-26 10:35:00,83.3,21.2,29.84,NNE,23,0.0,0.0,1,0.00,,,0.01,WUHU216HW,2013-06-26 14:35:00,
2013-06-26 10:37:00,83.5,21.2,29.84,NNE,23,0.0,0.0,1,0.00,,,0.01,WUHU216HW,2013-06-26 14:37:00,
2013-06-26 10:39:00,83.5,21.2,29.84,NNE,23,0.0,0.0,1,0.00,,,0.01,WUHU216HW,2013-06-26 14:39:00,
2013-06-26 10:40:00,83.5,21.2,29.84,NNE,23,0.0,0.0,1,0.00,,,0.01,WUHU216HW,2013-06-26 14:40:00,
2013-06-26 10:43:00,83.5,21.2,29.84,NNE,23,0.0,0.0,1,0.00,,,0.01,WUHU216HW,2013-06-26 14:43:00,
2013-06-26 10:44:00,83.3,21.2,29.84,NNE,23,0.0,0.0,1,0.00,,,0.01,WUHU216HW,2013-06-26 14:44:00,
2013-06-26 10:45:00,82.4,20.5,29.84,NNE,23,0.0,0.0,1,0.00,,,0.01,WUHU216HW,2013-06-26 14:45:00,
2013-06-26 10:47:00,82.8,20.8,29.84,NNE,23,0.2,1.1,1,0.00,,,0.01,WUHU216HW,2013-06-26 14:47:00,
2013-06-26 10:48:00,83.2,21.1,29.84,East,90,0.0,1.1,1,0.00,,,0.01,WUHU216HW,2013-06-26 14:48:00,
2013-06-26 10:49:00,83.3,21.2,29.84,East,90,0.0,1.1,1,0.00,,,0.01,WUHU216HW,2013-06-26 14:49:00,
2013-06-26 10:50:00,83.5,21.2,29.84,East,90,0.0,1.1,1,0.00,,,0.01,WUHU216HW,2013-06-26 14:50:00,
2013-06-26 10:53:00,83.5,21.2,29.84,East,90,0.4,1.1,1,0.00,,,0.01,WUHU216HW,2013-06-26 14:53:00,
2013-06-26 10:54:00,83.7,21.4,29.84,East,90,0.0,1.1,1,0.00,,,0.01,WUHU216HW,2013-06-26 14:54:00,
2013-06-26 10:55:00,83.9,21.5,29.84,East,90,0.2,1.1,1,0.00,,,0.01,WUHU216HW,2013-06-26 14:55:00,
2013-06-26 10:56:00,83.9,21.5,29.84,East,90,0.2,1.1,1,0.00,,,0.01,WUHU216HW,2013-06-26 14:56:00,
2013-06-26 10:58:00,82.4,20.5,29.84,East,90,0.4,0.4,1,0.00,,,0.01,WUHU216HW,2013-06-26 14:58:00,
2013-06-26 10:59:00,82.6,20.6,29.84,NW,315,0.9,0.9,1,0.00,,,0.01,WUHU216HW,2013-06-26 14:59:00,
2013-06-26 11:00:00,82.8,20.8,29.84,NW,315,0.0,0.9,1,0.00,,,0.01,WUHU216HW,2013-06-26 15:00:00,
2013-06-26 11:01:00,83.2,21.1,29.84,NW,315,0.0,0.9,1,0.00,,,0.01,WUHU216HW,2013-06-26 15:01:00,
2013-06-26 11:02:00,83.2,21.1,29.84,NW,315,0.0,0.9,1,0.00,,,0.01,WUHU216HW,2013-06-26 15:02:00,
2013-06-26 11:04:00,83.2,21.1,29.84,NW,315,0.0,0.9,1,0.00,,,0.01,WUHU216HW,2013-06-26 15:04:00,
2013-06-26 11:05:00,83.3,21.2,29.84,NW,315,0.0,0.9,1,0.00,,,0.01,WUHU216HW,2013-06-26 15:05:00,
2013-06-26 11:07:00,83.3,21.2,29.84,NW,315,0.0,0.9,1,0.00,,,0.01,WUHU216HW,2013-06-26 15:07:00,
2013-06-26 11:09:00,82.8,20.8,29.84,NNW,338,0.9,0.9,1,0.00,,,0.01,WUHU216HW,2013-06-26 15:09:00,
2013-06-26 11:12:00,82.8,20.8,29.84,North,0,0.9,1.1,1,0.00,,,0.01,WUHU216HW,2013-06-26 15:12:00,
2013-06-26 11:13:00,83.0,20.9,29.84,North,0,0.4,1.1,1,0.00,,,0.01,WUHU216HW,2013-06-26 15:13:00,
2013-06-26 11:14:00,82.8,20.8,29.84,North,0,0.0,1.1,1,0.00,,,0.01,WUHU216HW,2013-06-26 15:14:00,
2013-06-26 11:17:00,83.0,20.9,29.84,North,0,0.0,1.1,1,0.00,,,0.01,WUHU216HW,2013-06-26 15:17:00,
2013-06-26 11:18:00,83.0,20.9,29.84,North,0,0.4,1.1,1,0.00,,,0.01,WUHU216HW,2013-06-26 15:18:00,
2013-06-26 11:20:00,83.2,21.1,29.84,North,0,0.0,1.1,1,0.00,,,0.01,WUHU216HW,2013-06-26 15:20:00,
2013-06-26 11:21:00,83.2,21.1,29.84,North,0,0.0,1.1,1,0.00,,,0.01,WUHU216HW,2013-06-26 15:21:00,
2013-06-26 11:23:00,83.2,21.1,29.84,North,0,0.0,1.1,1,0.00,,,0.01,WUHU216HW,2013-06-26 15:23:00,
2013-06-26 11:24:00,83.2,21.1,29.84,North,0,0.4,1.1,1,0.00,,,0.01,WUHU216HW,2013-06-26 15:24:00,
2013-06-26 11:26:00,83.3,21.2,29.84,NE,45,0.0,0.4,1,0.00,,,0.01,WUHU216HW,2013-06-26 15:26:00,
2013-06-26 11:27:00,83.3,21.2,29.84,NE,45,0.0,0.4,1,0.00,,,0.01,WUHU216HW,2013-06-26 15:27:00,
2013-06-26 11:28:00,83.5,21.2,29.84,NE,45,0.0,0.4,1,0.00,,,0.01,WUHU216HW,2013-06-26 15:28:00,
2013-06-26 11:29:00,83.5,21.2,29.84,NE,45,0.0,0.4,1,0.00,,,0.01,WUHU216HW,2013-06-26 15:29:00,
2013-06-26 11:30:00,83.5,21.2,29.83,NE,45,0.0,0.4,1,0.00,,,0.01,WUHU216HW,2013-06-26 15:30:00,
2013-06-26 11:33:00,83.7,21.4,29.83,NE,45,0.4,0.4,1,0.00,,,0.01,WUHU216HW,2013-06-26 15:33:00,
2013-06-26 11:34:00,83.9,21.5,29.83,NE,45,0.7,0.7,1,0.00,,,0.01,WUHU216HW,2013-06-26 15:34:00,
2013-06-26 11:36:00,83.9,21.5,29.84,ENE,68,0.0,0.7,1,0.00,,,0.01,WUHU216HW,2013-06-26 15:36:00,
2013-06-26 11:38:00,84.1,21.7,29.84,ENE,68,0.0,0.7,1,0.00,,,0.01,WUHU216HW,2013-06-26 15:38:00,
2013-06-26 11:40:00,84.2,21.8,29.83,ENE,68,0.0,0.7,1,0.00,,,0.01,WUHU216HW,2013-06-26 15:40:00,
2013-06-26 11:42:00,84.4,22.0,29.84,ENE,68,0.0,0.7,1,0.00,,,0.01,WUHU216HW,2013-06-26 15:42:00,
2013-06-26 11:44:00,84.4,22.0,29.84,NNW,338,1.8,1.8,1,0.00,,,0.01,WUHU216HW,2013-06-26 15:44:00,
2013-06-26 11:45:00,84.4,22.0,29.84,NNW,338,0.2,1.8,1,0.00,,,0.01,WUHU216HW,2013-06-26 15:45:00,
2013-06-26 11:47:00,84.2,21.8,29.84,NW,315,0.0,1.8,1,0.00,,,0.01,WUHU216HW,2013-06-26 15:47:00,
2013-06-26 11:49:00,84.4,22.0,29.84,NW,315,0.0,1.8,1,0.00,,,0.01,WUHU216HW,2013-06-26 15:49:00,
2013-06-26 11:50:00,84.6,22.1,29.84,NW,315,0.4,1.8,1,0.00,,,0.01,WUHU216HW,2013-06-26 15:50:00,
2013-06-26 11:51:00,84.6,22.1,29.84,NW,315,0.0,1.8,1,0.00,,,0.01,WUHU216HW,2013-06-26 15:51:00,
2013-06-26 11:52:00,84.6,22.1,29.84,NW,315,0.0,1.8,1,0.00,,,0.01,WUHU216HW,2013-06-26 15:52:00,
2013-06-26 11:53:00,84.6,22.1,29.84,NW,315,0.0,1.8,1,0.00,,,0.01,WUHU216HW,2013-06-26 15:53:00,
2013-06-26 11:55:00,84.8,22.2,29.84,NE,45,0.0,0.9,1,0.00,,,0.01,WUHU216HW,2013-06-26 15:55:00,
2013-06-26 11:56:00,84.8,22.2,29.84,NE,45,0.0,0.4,1,0.00,,,0.01,WUHU216HW,2013-06-26 15:56:00,
2013-06-26 11:57:00,84.8,22.2,29.84,NE,45,0.0,0.4,1,0.00,,,0.01,WUHU216HW,2013-06-26 15:57:00,
2013-06-26 12:00:00,85.1,22.5,29.84,NE,45,0.2,0.4,1,0.00,,,0.01,WUHU216HW,2013-06-26 16:00:00,
2013-06-26 12:02:00,85.1,22.5,29.84,NE,45,0.0,0.4,1,0.00,,,0.01,WUHU216HW,2013-06-26 16:02:00,
2013-06-26 12:03:00,85.5,22.8,29.84,NNE,23,0.2,0.4,1,0.00,,,0.01,WUHU216HW,2013-06-26 16:03:00,
2013-06-26 12:04:00,85.5,22.8,29.84,NNE,23,0.2,0.4,1,0.00,,,0.01,WUHU216HW,2013-06-26 16:04:00,
2013-06-26 12:05:00,85.5,22.8,29.84,NW,315,0.2,0.9,1,0.00,,,0.01,WUHU216HW,2013-06-26 16:05:00,
2013-06-26 12:07:00,85.9,23.0,29.84,NW,315,0.0,0.9,1,0.00,,,0.01,WUHU216HW,2013-06-26 16:07:00,
2013-06-26 12:08:00,86.0,23.2,29.84,NW,315,0.0,0.9,1,0.00,,,0.01,WUHU216HW,2013-06-26 16:08:00,
2013-06-26 12:09:00,86.0,23.2,29.84,NW,315,0.0,0.9,1,0.00,,,0.01,WUHU216HW,2013-06-26 16:09:00,
2013-06-26 12:12:00,86.2,23.4,29.84,NW,315,1.8,1.8,1,0.00,,,0.01,WUHU216HW,2013-06-26 16:12:00,
2013-06-26 12:13:00,86.2,23.4,29.84,NW,315,0.0,1.8,1,0.00,,,0.01,WUHU216HW,2013-06-26 16:13:00,
2013-06-26 12:14:00,86.6,23.7,29.84,ESE,113,0.4,1.8,1,0.00,,,0.01,WUHU216HW,2013-06-26 16:14:00,
2013-06-26 12:16:00,86.4,23.5,29.84,ESE,113,0.0,1.8,1,0.00,,,0.01,WUHU216HW,2013-06-26 16:16:00,
2013-06-26 12:17:00,86.6,23.7,29.84,ESE,113,0.0,1.8,1,0.00,,,0.01,WUHU216HW,2013-06-26 16:17:00,
2013-06-26 12:18:00,86.6,23.7,29.84,WNW,293,0.9,1.8,1,0.00,,,0.01,WUHU216HW,2013-06-26 16:18:00,
2013-06-26 12:19:00,86.6,23.7,29.84,NW,315,0.4,1.8,1,0.00,,,0.01,WUHU216HW,2013-06-26 16:19:00,
2013-06-26 12:20:00,86.8,23.8,29.84,NW,315,0.0,1.8,1,0.00,,,0.01,WUHU216HW,2013-06-26 16:20:00,
2013-06-26 12:21:00,86.8,23.8,29.84,WNW,293,0.7,1.8,1,0.00,,,0.01,WUHU216HW,2013-06-26 16:21:00,
2013-06-26 12:22:00,86.8,23.8,29.84,WNW,293,0.0,1.8,1,0.00,,,0.01,WUHU216HW,2013-06-26 16:22:00,
2013-06-26 12:24:00,87.7,24.5,29.84,NNE,23,0.2,0.9,1,0.00,,,0.01,WUHU216HW,2013-06-26 16:24:00,
2013-06-26 12:25:00,87.5,24.4,29.84,ESE,113,0.2,0.9,1,0.00,,,0.01,WUHU216HW,2013-06-26 16:25:00,
2013-06-26 12:26:00,87.5,24.4,29.84,ESE,113,0.2,0.9,1,0.00,,,0.01,WUHU216HW,2013-06-26 16:26:00,
2013-06-26 12:27:00,87.5,24.4,29.84,East,90,0.4,0.9,1,0.00,,,0.01,WUHU216HW,2013-06-26 16:27:00,
2013-06-26 12:30:00,87.5,24.4,29.84,ENE,68,0.0,0.7,1,0.00,,,0.01,WUHU216HW,2013-06-26 16:30:00,
2013-06-26 12:32:00,87.3,24.2,29.84,ENE,68,0.0,0.4,1,0.00,,,0.01,WUHU216HW,2013-06-26 16:32:00,
2013-06-26 12:34:00,87.1,24.1,29.83,ENE,68,0.0,0.4,1,0.00,,,0.01,WUHU216HW,2013-06-26 16:34:00,
2013-06-26 12:37:00,87.1,24.1,29.83,East,90,0.4,0.4,1,0.00,,,0.01,WUHU216HW,2013-06-26 16:37:00,
2013-06-26 12:38:00,87.3,24.2,29.83,East,90,0.0,0.4,1,0.00,,,0.01,WUHU216HW,2013-06-26 16:38:00,
2013-06-26 12:39:00,87.5,24.4,29.83,East,90,0.0,0.4,1,0.00,,,0.01,WUHU216HW,2013-06-26 16:39:00,
2013-06-26 12:42:00,87.8,24.7,29.83,East,90,0.0,0.4,1,0.00,,,0.01,WUHU216HW,2013-06-26 16:42:00,
2013-06-26 12:43:00,87.7,24.5,29.83,East,90,0.0,0.4,1,0.00,,,0.01,WUHU216HW,2013-06-26 16:43:00,
2013-06-26 12:44:00,87.8,24.7,29.83,East,90,0.0,0.4,1,0.00,,,0.01,WUHU216HW,2013-06-26 16:44:00,
2013-06-26 12:48:00,87.8,24.7,29.83,East,90,0.0,0.2,1,0.00,,,0.01,WUHU216HW,2013-06-26 16:48:00,
2013-06-26 12:49:00,87.8,24.7,29.83,East,90,0.0,0.2,1,0.00,,,0.01,WUHU216HW,2013-06-26 16:49:00,
2013-06-26 12:50:00,87.8,24.7,29.83,East,90,0.0,0.2,1,0.00,,,0.01,WUHU216HW,2013-06-26 16:50:00,
2013-06-26 12:53:00,88.2,24.9,29.83,WSW,248,0.4,0.4,1,0.00,,,0.01,WUHU216HW,2013-06-26 16:53:00,
2013-06-26 12:54:00,88.0,24.8,29.83,WSW,248,0.0,0.4,1,0.00,,,0.01,WUHU216HW,2013-06-26 16:54:00,
2013-06-26 12:55:00,88.4,25.0,29.83,West,270,0.4,0.9,1,0.00,,,0.01,WUHU216HW,2013-06-26 16:55:00,
2013-06-26 12:56:00,88.4,25.0,29.83,West,270,0.0,1.1,1,0.00,,,0.01,WUHU216HW,2013-06-26 16:56:00,
2013-06-26 12:59:00,89.6,25.9,29.83,WSW,248,0.4,1.6,1,0.00,,,0.01,WUHU216HW,2013-06-26 16:59:00,
2013-06-26 13:00:00,89.6,25.9,29.83,WSW,248,0.4,1.6,1,0.00,,,0.01,WUHU216HW,2013-06-26 17:00:00,
2013-06-26 13:01:00,89.8,26.1,29.83,WSW,248,0.0,1.6,1,0.00,,,0.01,WUHU216HW,2013-06-26 17:01:00,
2013-06-26 13:05:00,90.5,26.6,29.83,West,270,0.2,1.6,1,0.00,,,0.01,WUHU216HW,2013-06-26 17:05:00,
2013-06-26 13:06:00,90.5,26.6,29.82,West,270,0.0,1.6,1,0.00,,,0.01,WUHU216HW,2013-06-26 17:06:00,
2013-06-26 13:07:00,90.7,26.8,29.83,West,270,0.0,1.6,1,0.00,,,0.01,WUHU216HW,2013-06-26 17:07:00,
2013-06-26 13:11:00,91.3,27.2,29.82,NE,45,0.0,1.6,1,0.00,,,0.01,WUHU216HW,2013-06-26 17:11:00,
2013-06-26 13:13:00,91.4,27.4,29.82,NNE,23,0.4,1.6,1,0.00,,,0.01,WUHU216HW,2013-06-26 17:13:00,
2013-06-26 13:16:00,91.8,27.6,29.82,North,0,0.7,2.0,1,0.00,,,0.01,WUHU216HW,2013-06-26 17:16:00,
2013-06-26 13:18:00,91.6,27.5,29.82,North,0,0.0,2.0,1,0.00,,,0.01,WUHU216HW,2013-06-26 17:18:00,
2013-06-26 13:19:00,91.8,27.6,29.82,North,0,0.2,2.0,6,0.00,,,0.01,WUHU216HW,2013-06-26 17:19:00,
2013-06-26 13:23:00,91.8,27.6,29.82,NW,315,0.4,2.0,10,0.00,,,0.01,WUHU216HW,2013-06-26 17:23:00,
2013-06-26 13:24:00,91.6,27.5,29.82,NW,315,0.4,2.0,2,0.00,,,0.01,WUHU216HW,2013-06-26 17:24:00,
2013-06-26 13:26:00,91.6,27.5,29.82,NW,315,0.0,2.0,1,0.00,,,0.01,WUHU216HW,2013-06-26 17:26:00,
2013-06-26 13:28:00,91.8,27.6,29.82,NNW,338,0.4,1.8,3,0.00,,,0.01,WUHU216HW,2013-06-26 17:28:00,
2013-06-26 13:29:00,92.0,27.7,29.82,North,0,0.4,1.8,5,0.00,,,0.01,WUHU216HW,2013-06-26 17:29:00,
2013-06-26 13:30:00,91.8,27.6,29.82,North,0,0.0,1.8,1,0.00,,,0.01,WUHU216HW,2013-06-26 17:30:00,
2013-06-26 13:32:00,92.0,27.7,29.82,North,0,1.8,1.8,3,0.00,,,0.01,WUHU216HW,2013-06-26 17:32:00,
2013-06-26 13:33:00,91.8,27.6,29.82,North,0,0.4,1.8,1,0.00,,,0.01,WUHU216HW,2013-06-26 17:33:00,
2013-06-26 13:35:00,92.0,27.7,29.82,WNW,293,0.4,2.2,5,0.00,,,0.01,WUHU216HW,2013-06-26 17:35:00,
2013-06-26 13:36:00,92.2,29.6,29.82,NW,315,1.3,2.5,11,0.00,,,0.01,WUHU216HW,2013-06-26 17:36:00,
2013-06-26 13:37:00,92.0,27.7,29.82,NNE,23,0.4,2.5,7,0.00,,,0.01,WUHU216HW,2013-06-26 17:37:00,
2013-06-26 13:38:00,92.0,27.7,29.82,WNW,293,0.4,2.5,6,0.00,,,0.01,WUHU216HW,2013-06-26 17:38:00,
2013-06-26 13:40:00,92.0,27.7,29.82,WNW,293,0.9,2.5,3,0.00,,,0.01,WUHU216HW,2013-06-26 17:40:00,
2013-06-26 13:41:00,92.2,27.9,29.82,WNW,293,0.9,2.5,3,0.00,,,0.01,WUHU216HW,2013-06-26 17:41:00,
2013-06-26 13:43:00,92.2,27.9,29.82,WNW,293,0.0,2.5,6,0.00,,,0.01,WUHU216HW,2013-06-26 17:43:00,
2013-06-26 13:47:00,92.3,28.0,29.82,WNW,293,0.0,1.8,1,0.00,,,0.01,WUHU216HW,2013-06-26 17:47:00,
2013-06-26 13:49:00,92.5,28.1,29.82,West,270,0.7,1.1,2,0.00,,,0.01,WUHU216HW,2013-06-26 17:49:00,
2013-06-26 13:52:00,92.7,28.3,29.82,WSW,248,1.1,1.1,5,0.00,,,0.01,WUHU216HW,2013-06-26 17:52:00,
2013-06-26 13:54:00,92.9,28.4,29.82,WSW,248,0.0,2.7,7,0.00,,,0.01,WUHU216HW,2013-06-26 17:54:00,
2013-06-26 13:55:00,92.9,28.4,29.82,WSW,248,0.0,2.7,5,0.00,,,0.01,WUHU216HW,2013-06-26 17:55:00,
2013-06-26 13:57:00,93.1,28.5,29.82,WSW,248,0.2,2.7,5,0.00,,,0.01,WUHU216HW,2013-06-26 17:57:00,
2013-06-26 13:58:00,93.1,28.5,29.82,NW,315,0.4,2.7,5,0.00,,,0.01,WUHU216HW,2013-06-26 17:58:00,
2013-06-26 13:59:00,93.2,28.6,29.82,NNW,338,0.0,2.7,5,0.00,,,0.01,WUHU216HW,2013-06-26 17:59:00,
2013-06-26 14:00:00,93.2,28.6,29.82,NE,45,0.4,2.7,6,0.00,,,0.01,WUHU216HW,2013-06-26 18:00:00,
2013-06-26 14:02:00,93.2,28.6,29.82,NNE,23,0.2,2.7,7,0.00,,,0.01,WUHU216HW,2013-06-26 18:02:00,
2013-06-26 14:03:00,93.4,28.8,29.82,NNE,23,0.2,0.9,7,0.00,,,0.01,WUHU216HW,2013-06-26 18:03:00,
2013-06-26 14:04:00,93.4,28.8,29.81,NNE,23,0.0,0.9,7,0.00,,,0.01,WUHU216HW,2013-06-26 18:04:00,
2013-06-26 14:05:00,93.2,28.6,29.81,NNE,23,0.2,0.9,7,0.00,,,0.01,WUHU216HW,2013-06-26 18:05:00,
2013-06-26 14:06:00,93.2,30.4,29.82,NNE,23,0.9,0.9,11,0.00,,,0.01,WUHU216HW,2013-06-26 18:06:00,
2013-06-26 14:08:00,93.2,30.4,29.81,NNE,23,0.9,0.9,11,0.00,,,0.01,WUHU216HW,2013-06-26 18:08:00,
2013-06-26 14:09:00,93.2,32.1,29.81,NNE,23,0.0,0.9,12,0.00,,,0.01,WUHU216HW,2013-06-26 18:09:00,
2013-06-26 14:11:00,93.2,30.4,29.81,NNE,23,0.0,0.9,11,0.00,,,0.01,WUHU216HW,2013-06-26 18:11:00,
2013-06-26 14:12:00,93.2,30.4,29.81,ENE,68,0.2,0.9,11,0.00,,,0.01,WUHU216HW,2013-06-26 18:12:00,
2013-06-26 14:13:00,93.2,28.6,29.81,ENE,68,0.2,0.9,10,0.00,,,0.01,WUHU216HW,2013-06-26 18:13:00,
2013-06-26 14:16:00,93.4,30.5,29.81,NNE,23,0.9,0.9,11,0.00,,,0.01,WUHU216HW,2013-06-26 18:16:00,
2013-06-26 14:17:00,93.6,43.7,29.81,NNE,23,0.2,1.1,18,0.00,,,0.01,WUHU216HW,2013-06-26 18:17:00,
2013-06-26 14:18:00,93.6,49.9,29.81,West,270,1.3,1.3,23,0.00,,,0.01,WUHU216HW,2013-06-26 18:18:00,
2013-06-26 14:19:00,93.6,49.9,29.81,West,270,1.1,1.3,23,0.00,,,0.01,WUHU216HW,2013-06-26 18:19:00,
2013-06-26 14:22:00,93.6,50.2,29.80,East,90,0.4,1.3,23,0.00,,,0.01,WUHU216HW,2013-06-26 18:22:00,
2013-06-26 14:24:00,93.4,42.8,29.80,East,90,0.0,1.3,18,0.00,,,0.01,WUHU216HW,2013-06-26 18:24:00,
2013-06-26 14:26:00,93.6,39.5,29.80,East,90,0.0,1.3,16,0.00,,,0.01,WUHU216HW,2013-06-26 18:26:00,
2013-06-26 14:27:00,93.6,37.7,29.80,East,90,0.0,1.3,15,0.00,,,0.01,WUHU216HW,2013-06-26 18:27:00,
2013-06-26 14:30:00,94.0,39.8,29.81,East,90,0.0,0.7,16,0.00,,,0.01,WUHU216HW,2013-06-26 18:30:00,
2013-06-26 14:31:00,94.0,39.8,29.80,East,90,0.0,0.7,16,0.00,,,0.01,WUHU216HW,2013-06-26 18:31:00,
2013-06-26 14:32:00,94.0,38.0,29.81,East,90,0.0,0.7,15,0.00,,,0.01,WUHU216HW,2013-06-26 18:32:00,
2013-06-26 14:33:00,94.3,40.1,29.81,SE,135,0.0,0.7,16,0.00,,,0.01,WUHU216HW,2013-06-26 18:33:00,
2013-06-26 14:34:00,94.3,38.4,29.81,WSW,248,1.1,1.1,15,0.00,,,0.01,WUHU216HW,2013-06-26 18:34:00,
2013-06-26 14:36:00,94.7,42.1,29.81,WSW,248,0.9,1.1,17,0.00,,,0.01,WUHU216HW,2013-06-26 18:36:00,
2013-06-26 14:37:00,94.7,45.6,29.80,WSW,248,0.0,1.1,19,0.00,,,0.01,WUHU216HW,2013-06-26 18:37:00,
2013-06-26 14:39:00,94.7,42.1,29.80,WSW,248,0.0,1.1,17,0.00,,,0.01,WUHU216HW,2013-06-26 18:39:00,
2013-06-26 14:42:00,94.9,51.0,29.80,WSW,248,0.4,1.1,23,0.00,,,0.01,WUHU216HW,2013-06-26 18:42:00,
2013-06-26 14:43:00,94.9,52.0,29.80,WSW,248,0.7,1.1,24,0.00,,,0.01,WUHU216HW,2013-06-26 18:43:00,
2013-06-26 14:44:00,94.9,51.0,29.80,WSW,248,0.0,1.1,23,0.00,,,0.01,WUHU216HW,2013-06-26 18:44:00,
2013-06-26 14:45:00,94.9,51.0,29.80,WSW,248,0.4,1.1,23,0.00,,,0.01,WUHU216HW,2013-06-26 18:45:00,
2013-06-26 14:48:00,94.7,51.8,29.80,WNW,293,0.0,1.1,24,0.00,,,0.01,WUHU216HW,2013-06-26 18:48:00,
2013-06-26 14:50:00,94.7,50.8,29.80,WNW,293,0.0,1.1,23,0.00,,,0.01,WUHU216HW,2013-06-26 18:50:00,
2013-06-26 14:51:00,94.7,50.8,29.80,WNW,293,0.0,1.1,23,0.00,,,0.01,WUHU216HW,2013-06-26 18:51:00,
2013-06-26 14:53:00,94.7,48.5,29.80,WNW,293,0.0,0.9,21,0.00,,,0.01,WUHU216HW,2013-06-26 18:53:00,
2013-06-26 14:54:00,94.7,50.8,29.80,WNW,293,0.0,0.9,23,0.00,,,0.01,WUHU216HW,2013-06-26 18:54:00,
2013-06-26 14:55:00,94.7,50.8,29.80,WNW,293,0.0,0.9,23,0.00,,,0.01,WUHU216HW,2013-06-26 18:55:00,
2013-06-26 14:57:00,94.7,51.8,29.80,WNW,293,0.2,0.4,24,0.00,,,0.01,WUHU216HW,2013-06-26 18:57:00,
2013-06-26 14:58:00,94.7,50.8,29.80,WNW,293,0.0,0.4,23,0.00,,,0.01,WUHU216HW,2013-06-26 18:58:00,
2013-06-26 14:59:00,94.7,50.8,29.80,WNW,293,0.0,0.4,23,0.00,,,0.01,WUHU216HW,2013-06-26 18:59:00,
2013-06-26 15:00:00,94.5,48.4,29.80,WNW,293,0.0,0.4,21,0.00,,,0.01,WUHU216HW,2013-06-26 19:00:00,
2013-06-26 15:03:00,94.5,48.4,29.80,WNW,293,0.0,0.4,21,0.00,,,0.01,WUHU216HW,2013-06-26 19:03:00,
2013-06-26 15:04:00,94.3,45.4,29.80,WNW,293,0.0,0.4,19,0.00,,,0.01,WUHU216HW,2013-06-26 19:04:00,
2013-06-26 15:05:00,94.1,40.0,29.80,WNW,293,0.0,0.4,16,0.00,,,0.01,WUHU216HW,2013-06-26 19:05:00,
2013-06-26 15:09:00,94.0,29.2,29.80,WNW,293,0.0,0.0,8,0.00,,,0.01,WUHU216HW,2013-06-26 19:09:00,
2013-06-26 15:10:00,94.0,29.2,29.80,WNW,293,0.0,0.0,7,0.00,,,0.01,WUHU216HW,2013-06-26 19:10:00,
2013-06-26 15:11:00,94.0,29.2,29.80,WNW,293,0.0,0.0,7,0.00,,,0.01,WUHU216HW,2013-06-26 19:11:00,
2013-06-26 15:14:00,93.6,28.9,29.80,WSW,248,0.0,1.6,10,0.00,,,0.01,WUHU216HW,2013-06-26 19:14:00,
2013-06-26 15:15:00,93.6,28.9,29.80,WSW,248,0.0,1.6,10,0.00,,,0.01,WUHU216HW,2013-06-26 19:15:00,
2013-06-26 15:16:00,93.6,28.9,29.80,WSW,248,0.0,1.6,8,0.00,,,0.01,WUHU216HW,2013-06-26 19:16:00,
2013-06-26 15:19:00,93.8,30.8,29.79,West,270,0.2,1.6,11,0.00,,,0.01,WUHU216HW,2013-06-26 19:19:00,
2013-06-26 15:21:00,94.0,29.2,29.79,North,0,0.0,1.6,7,0.00,,,0.01,WUHU216HW,2013-06-26 19:21:00,
2013-06-26 15:23:00,94.0,29.2,29.79,ENE,68,0.0,1.1,6,0.00,,,0.01,WUHU216HW,2013-06-26 19:23:00,
2013-06-26 15:24:00,94.0,29.2,29.79,ENE,68,0.2,1.1,6,0.00,,,0.01,WUHU216HW,2013-06-26 19:24:00,
2013-06-26 15:27:00,93.4,28.8,29.79,East,90,0.4,1.1,6,0.00,,,0.01,WUHU216HW,2013-06-26 19:27:00,
2013-06-26 15:28:00,93.4,28.8,29.79,East,90,0.2,1.1,5,0.00,,,0.01,WUHU216HW,2013-06-26 19:28:00,
2013-06-26 15:29:00,93.2,28.6,29.79,East,90,0.4,1.1,5,0.00,,,0.01,WUHU216HW,2013-06-26 19:29:00,
2013-06-26 15:30:00,93.1,28.5,29.79,East,90,0.0,1.1,3,0.00,,,0.01,WUHU216HW,2013-06-26 19:30:00,
2013-06-26 15:31:00,92.9,28.4,29.79,East,90,1.1,1.1,2,0.00,,,0.01,WUHU216HW,2013-06-26 19:31:00,
2013-06-26 15:32:00,92.9,28.4,29.79,East,90,1.1,1.1,2,0.00,,,0.01,WUHU216HW,2013-06-26 19:32:00,
2013-06-26 15:34:00,92.7,28.3,29.79,East,90,0.0,1.1,1,0.00,,,0.01,WUHU216HW,2013-06-26 19:34:00,
2013-06-26 15:36:00,92.7,28.3,29.79,East,90,0.0,1.1,1,0.00,,,0.01,WUHU216HW,2013-06-26 19:36:00,
2013-06-26 15:37:00,92.7,28.3,29.79,ENE,68,0.2,1.1,1,0.00,,,0.01,WUHU216HW,2013-06-26 19:37:00,
2013-06-26 15:38:00,92.7,28.3,29.79,ENE,68,0.0,1.1,1,0.00,,,0.01,WUHU216HW,2013-06-26 19:38:00,
2013-06-26 15:39:00,92.5,28.1,29.79,ENE,68,0.0,1.1,1,0.00,,,0.01,WUHU216HW,2013-06-26 19:39:00,
2013-06-26 15:41:00,92.3,28.0,29.79,ENE,68,0.2,1.1,1,0.00,,,0.01,WUHU216HW,2013-06-26 19:41:00,
2013-06-26 15:43:00,92.2,27.9,29.79,ENE,68,0.4,0.4,1,0.00,,,0.01,WUHU216HW,2013-06-26 19:43:00,
2013-06-26 15:45:00,92.0,27.7,29.79,East,90,0.2,0.4,1,0.00,,,0.01,WUHU216HW,2013-06-26 19:45:00,
2013-06-26 15:46:00,91.8,27.6,29.79,East,90,0.7,0.7,1,0.00,,,0.01,WUHU216HW,2013-06-26 19:46:00,
2013-06-26 15:47:00,91.8,27.6,29.79,East,90,0.7,0.7,1,0.00,,,0.01,WUHU216HW,2013-06-26 19:47:00,
2013-06-26 15:48:00,91.4,27.4,29.79,SSW,203,0.4,0.7,1,0.00,,,0.01,WUHU216HW,2013-06-26 19:48:00,
2013-06-26 15:49:00,91.4,27.4,29.79,SE,135,0.4,0.7,1,0.00,,,0.01,WUHU216HW,2013-06-26 19:49:00,
2013-06-26 15:51:00,91.3,27.2,29.79,ENE,68,0.0,0.7,1,0.00,,,0.01,WUHU216HW,2013-06-26 19:51:00,
2013-06-26 15:52:00,91.3,27.2,29.78,ENE,68,0.4,0.7,1,0.00,,,0.01,WUHU216HW,2013-06-26 19:52:00,
2013-06-26 15:53:00,91.1,27.1,29.78,ESE,113,0.2,0.7,1,0.00,,,0.01,WUHU216HW,2013-06-26 19:53:00,
2013-06-26 15:56:00,91.1,27.1,29.77,ENE,68,0.0,1.1,1,0.00,,,0.01,WUHU216HW,2013-06-26 19:56:00,
2013-06-26 15:57:00,91.1,27.1,29.77,ENE,68,0.2,1.1,1,0.00,,,0.01,WUHU216HW,2013-06-26 19:57:00,
2013-06-26 15:58:00,90.9,26.9,29.77,East,90,0.2,1.1,1,0.00,,,0.01,WUHU216HW,2013-06-26 19:58:00,
2013-06-26 15:59:00,90.7,26.8,29.77,East,90,0.0,1.1,1,0.00,,,0.01,WUHU216HW,2013-06-26 19:59:00,
2013-06-26 16:01:00,90.7,26.8,29.77,East,90,0.0,1.1,1,0.00,,,0.01,WUHU216HW,2013-06-26 20:01:00,
2013-06-26 16:02:00,90.5,26.6,29.77,East,90,0.0,1.1,1,0.00,,,0.01,WUHU216HW,2013-06-26 20:02:00,
2013-06-26 16:03:00,90.7,26.8,29.77,East,90,0.4,1.1,1,0.00,,,0.01,WUHU216HW,2013-06-26 20:03:00,
2013-06-26 16:04:00,90.5,26.6,29.77,East,90,0.0,1.1,1,0.00,,,0.01,WUHU216HW,2013-06-26 20:04:00,
2013-06-26 16:07:00,90.5,26.6,29.77,East,90,0.0,0.4,1,0.00,,,0.01,WUHU216HW,2013-06-26 20:07:00,
2013-06-26 16:08:00,90.7,26.8,29.77,East,90,0.0,0.4,1,0.00,,,0.01,WUHU216HW,2013-06-26 20:08:00,
2013-06-26 16:09:00,90.7,26.8,29.77,SW,225,0.2,0.4,1,0.00,,,0.01,WUHU216HW,2013-06-26 20:09:00,
2013-06-26 16:10:00,90.9,26.9,29.77,NNW,338,0.2,0.4,1,0.00,,,0.01,WUHU216HW,2013-06-26 20:10:00,
2013-06-26 16:13:00,91.1,27.1,29.77,NE,45,0.0,0.4,1,0.00,,,0.01,WUHU216HW,2013-06-26 20:13:00,
2013-06-26 16:14:00,91.1,27.1,29.77,NE,45,0.0,0.4,1,0.00,,,0.01,WUHU216HW,2013-06-26 20:14:00,
2013-06-26 16:15:00,91.1,27.1,29.77,ENE,68,0.2,0.4,1,0.00,,,0.01,WUHU216HW,2013-06-26 20:15:00,
2013-06-26 16:16:00,91.1,27.1,29.77,ENE,68,0.4,0.4,1,0.00,,,0.01,WUHU216HW,2013-06-26 20:16:00,
2013-06-26 16:18:00,91.1,27.1,29.77,ENE,68,0.0,0.4,1,0.00,,,0.01,WUHU216HW,2013-06-26 20:18:00,
2013-06-26 16:19:00,91.1,27.1,29.77,West,270,0.0,0.4,1,0.00,,,0.01,WUHU216HW,2013-06-26 20:19:00,
2013-06-26 16:20:00,91.1,27.1,29.76,ESE,113,0.9,0.9,1,0.00,,,0.01,WUHU216HW,2013-06-26 20:20:00,
2013-06-26 16:21:00,91.1,27.1,29.77,ESE,113,0.4,0.9,1,0.00,,,0.01,WUHU216HW,2013-06-26 20:21:00,
2013-06-26 16:24:00,91.1,27.1,29.76,ESE,113,0.0,0.9,1,0.00,,,0.01,WUHU216HW,2013-06-26 20:24:00,
2013-06-26 16:25:00,91.1,27.1,29.76,ENE,68,0.2,0.9,1,0.00,,,0.01,WUHU216HW,2013-06-26 20:25:00,
2013-06-26 16:26:00,91.1,27.1,29.76,ENE,68,0.0,0.9,1,0.00,,,0.01,WUHU216HW,2013-06-26 20:26:00,
2013-06-26 16:29:00,90.9,26.9,29.76,East,90,0.0,0.9,1,0.00,,,0.01,WUHU216HW,2013-06-26 20:29:00,
2013-06-26 16:30:00,90.9,26.9,29.76,East,90,0.0,0.9,1,0.00,,,0.01,WUHU216HW,2013-06-26 20:30:00,
2013-06-26 16:31:00,90.9,26.9,29.76,East,90,0.0,0.4,1,0.00,,,0.01,WUHU216HW,2013-06-26 20:31:00,
2013-06-26 16:35:00,90.7,26.8,29.76,East,90,0.0,0.4,1,0.00,,,0.01,WUHU216HW,2013-06-26 20:35:00,
2013-06-26 16:36:00,90.7,26.8,29.76,East,90,0.4,0.4,1,0.00,,,0.01,WUHU216HW,2013-06-26 20:36:00,
2013-06-26 16:37:00,90.5,26.6,29.76,East,90,0.0,0.4,1,0.00,,,0.01,WUHU216HW,2013-06-26 20:37:00,
2013-06-26 16:40:00,89.6,25.9,29.76,East,90,0.0,0.4,1,0.00,,,0.01,WUHU216HW,2013-06-26 20:40:00,
2013-06-26 16:41:00,89.5,25.8,29.76,East,90,0.0,0.4,1,0.00,,,0.01,WUHU216HW,2013-06-26 20:41:00,
2013-06-26 16:42:00,89.1,25.6,29.76,East,90,0.2,0.4,1,0.00,,,0.01,WUHU216HW,2013-06-26 20:42:00,
2013-06-26 16:43:00,88.9,25.4,29.76,ESE,113,0.2,0.4,1,0.00,,,0.01,WUHU216HW,2013-06-26 20:43:00,
2013-06-26 16:46:00,88.4,25.0,29.76,SE,135,0.0,0.7,1,0.00,,,0.01,WUHU216HW,2013-06-26 20:46:00,
2013-06-26 16:47:00,88.0,24.8,29.76,West,270,0.0,0.7,1,0.00,,,0.01,WUHU216HW,2013-06-26 20:47:00,
2013-06-26 16:48:00,87.8,24.7,29.76,West,270,0.0,0.7,1,0.00,,,0.01,WUHU216HW,2013-06-26 20:48:00,
2013-06-26 16:49:00,87.7,24.5,29.76,West,270,0.0,0.7,1,0.00,,,0.01,WUHU216HW,2013-06-26 20:49:00,
2013-06-26 16:51:00,87.5,24.4,29.75,SE,135,0.0,0.7,1,0.00,,,0.01,WUHU216HW,2013-06-26 20:51:00,
2013-06-26 16:53:00,87.1,24.1,29.75,SE,135,0.0,0.7,1,0.00,,,0.01,WUHU216HW,2013-06-26 20:53:00,
2013-06-26 16:54:00,87.1,24.1,29.75,SE,135,0.0,0.7,1,0.00,,,0.01,WUHU216HW,2013-06-26 20:54:00,
2013-06-26 16:56:00,86.8,23.8,29.75,SE,135,0.0,0.4,1,0.00,,,0.01,WUHU216HW,2013-06-26 20:56:00,
2013-06-26 16:58:00,86.2,23.4,29.75,SE,135,0.0,0.4,1,0.00,,,0.01,WUHU216HW,2013-06-26 20:58:00,
2013-06-26 16:59:00,86.2,23.4,29.75,SE,135,0.0,0.2,1,0.00,,,0.01,WUHU216HW,2013-06-26 20:59:00,
2013-06-26 17:00:00,86.2,23.4,29.75,SE,135,0.0,0.2,1,0.00,,,0.01,WUHU216HW,2013-06-26 21:00:00,
2013-06-26 17:01:00,86.0,23.2,29.76,SE,135,0.0,0.0,1,0.00,,,0.01,WUHU216HW,2013-06-26 21:01:00,
2013-06-26 17:03:00,86.0,23.2,29.76,SE,135,0.0,0.0,1,0.00,,,0.01,WUHU216HW,2013-06-26 21:03:00,
2013-06-26 17:05:00,85.9,23.0,29.76,SSE,158,0.4,0.4,1,0.00,,,0.01,WUHU216HW,2013-06-26 21:05:00,
2013-06-26 17:06:00,85.9,23.0,29.76,SSE,158,0.0,0.4,1,0.00,,,0.01,WUHU216HW,2013-06-26 21:06:00,
2013-06-26 17:07:00,85.7,23.0,29.76,East,90,0.0,0.4,1,0.00,,,0.01,WUHU216HW,2013-06-26 21:07:00,
2013-06-26 17:09:00,85.5,22.8,29.76,ESE,113,0.0,0.4,1,0.00,,,0.01,WUHU216HW,2013-06-26 21:09:00,
2013-06-26 17:11:00,85.3,22.7,29.76,ESE,113,0.2,0.4,1,0.00,,,0.01,WUHU216HW,2013-06-26 21:11:00,
2013-06-26 17:12:00,85.3,22.7,29.76,South,180,0.2,0.7,1,0.00,,,0.01,WUHU216HW,2013-06-26 21:12:00,
2013-06-26 17:15:00,85.3,22.7,29.76,SW,225,0.0,0.7,1,0.00,,,0.01,WUHU216HW,2013-06-26 21:15:00,
2013-06-26 17:16:00,85.1,22.5,29.76,SW,225,0.0,0.7,1,0.00,,,0.01,WUHU216HW,2013-06-26 21:16:00,
2013-06-26 17:17:00,85.0,22.3,29.76,SW,225,0.0,0.7,1,0.00,,,0.01,WUHU216HW,2013-06-26 21:17:00,
2013-06-26 17:18:00,84.8,22.2,29.76,SW,225,0.0,0.7,1,0.00,,,0.01,WUHU216HW,2013-06-26 21:18:00,
2013-06-26 17:20:00,84.6,22.1,29.76,SW,225,0.0,0.7,1,0.00,,,0.01,WUHU216HW,2013-06-26 21:20:00,
2013-06-26 17:21:00,84.4,22.0,29.76,WSW,248,0.0,0.7,1,0.00,,,0.01,WUHU216HW,2013-06-26 21:21:00,
2013-06-26 17:22:00,84.4,22.0,29.76,WSW,248,0.0,0.7,1,0.00,,,0.01,WUHU216HW,2013-06-26 21:22:00,
2013-06-26 17:23:00,84.4,22.0,29.76,WSW,248,0.0,0.7,1,0.00,,,0.01,WUHU216HW,2013-06-26 21:23:00,
2013-06-26 17:26:00,84.6,22.1,29.76,WSW,248,0.7,0.7,1,0.00,,,0.01,WUHU216HW,2013-06-26 21:26:00,
2013-06-26 17:27:00,84.6,22.1,29.76,WSW,248,0.2,0.7,1,0.00,,,0.01,WUHU216HW,2013-06-26 21:27:00,
2013-06-26 17:28:00,84.6,22.1,29.76,WSW,248,1.1,1.1,1,0.00,,,0.01,WUHU216HW,2013-06-26 21:28:00,
2013-06-26 17:32:00,85.9,23.0,29.77,ESE,113,1.8,4.0,1,0.00,,,0.01,WUHU216HW,2013-06-26 21:32:00,
2013-06-26 17:33:00,85.5,22.8,29.77,South,180,0.4,4.0,1,0.00,,,0.01,WUHU216HW,2013-06-26 21:33:00,
2013-06-26 17:34:00,86.2,23.4,29.76,ESE,113,1.3,4.0,1,0.00,,,0.01,WUHU216HW,2013-06-26 21:34:00,
2013-06-26 17:38:00,85.1,22.5,29.76,ESE,113,0.7,4.9,1,0.00,,,0.01,WUHU216HW,2013-06-26 21:38:00,
2013-06-26 17:39:00,84.8,22.2,29.77,ESE,113,1.3,4.9,1,0.00,,,0.01,WUHU216HW,2013-06-26 21:39:00,
2013-06-26 17:40:00,84.4,22.0,29.77,SSE,158,1.3,4.9,1,0.00,,,0.01,WUHU216HW,2013-06-26 21:40:00,
2013-06-26 17:44:00,83.5,21.2,29.77,West,270,1.3,4.9,1,0.00,,,0.01,WUHU216HW,2013-06-26 21:44:00,
2013-06-26 17:45:00,83.7,21.4,29.77,ESE,113,2.5,4.9,1,0.00,,,0.01,WUHU216HW,2013-06-26 21:45:00,
2013-06-26 17:46:00,83.3,21.2,29.77,ESE,113,0.4,3.8,1,0.00,,,0.01,WUHU216HW,2013-06-26 21:46:00,
2013-06-26 17:49:00,82.8,20.8,29.77,WNW,293,2.7,3.8,1,0.00,,,0.01,WUHU216HW,2013-06-26 21:49:00,
2013-06-26 17:50:00,82.6,20.6,29.77,WNW,293,0.2,3.8,1,0.00,,,0.01,WUHU216HW,2013-06-26 21:50:00,
2013-06-26 17:51:00,82.6,20.6,29.77,ESE,113,0.7,3.8,1,0.00,,,0.01,WUHU216HW,2013-06-26 21:51:00,
2013-06-26 17:54:00,82.1,20.3,29.77,SE,135,0.0,3.8,1,0.00,,,0.01,WUHU216HW,2013-06-26 21:54:00,
2013-06-26 17:56:00,82.1,20.3,29.77,West,270,0.2,2.9,1,0.00,,,0.01,WUHU216HW,2013-06-26 21:56:00,
2013-06-26 17:57:00,81.9,20.1,29.77,West,270,0.0,2.9,1,0.00,,,0.01,WUHU216HW,2013-06-26 21:57:00,
2013-06-26 18:00:00,81.7,20.0,29.77,West,270,0.0,2.7,1,0.00,,,0.01,WUHU216HW,2013-06-26 22:00:00,
2013-06-26 18:02:00,81.9,20.1,29.77,SE,135,0.2,1.8,1,0.00,,,0.01,WUHU216HW,2013-06-26 22:02:00,
2013-06-26 18:05:00,82.4,20.5,29.77,ENE,68,0.4,2.0,1,0.00,,,0.01,WUHU216HW,2013-06-26 22:05:00,
2013-06-26 18:07:00,82.1,20.3,29.77,ESE,113,0.4,2.0,1,0.00,,,0.01,WUHU216HW,2013-06-26 22:07:00,
2013-06-26 18:09:00,81.9,20.1,29.77,SE,135,0.0,2.0,1,0.00,,,0.01,WUHU216HW,2013-06-26 22:09:00,
2013-06-26 18:11:00,81.7,20.0,29.77,SE,135,0.4,2.0,1,0.00,,,0.01,WUHU216HW,2013-06-26 22:11:00,
2013-06-26 18:12:00,81.7,20.0,29.77,SE,135,0.0,2.0,1,0.00,,,0.01,WUHU216HW,2013-06-26 22:12:00,
2013-06-26 18:13:00,81.5,19.8,29.77,SW,225,0.4,2.0,1,0.00,,,0.01,WUHU216HW,2013-06-26 22:13:00,
2013-06-26 18:14:00,81.5,19.8,29.77,SW,225,0.0,2.0,1,0.00,,,0.01,WUHU216HW,2013-06-26 22:14:00,
2013-06-26 18:16:00,81.5,19.8,29.77,ESE,113,0.2,1.3,1,0.00,,,0.01,WUHU216HW,2013-06-26 22:16:00,
2013-06-26 18:18:00,81.4,19.6,29.77,ESE,113,0.0,1.3,1,0.00,,,0.01,WUHU216HW,2013-06-26 22:18:00,
2013-06-26 18:19:00,81.4,19.6,29.77,WSW,248,0.0,1.3,1,0.00,,,0.01,WUHU216HW,2013-06-26 22:19:00,
2013-06-26 18:21:00,81.4,19.6,29.77,ESE,113,0.4,1.3,1,0.00,,,0.01,WUHU216HW,2013-06-26 22:21:00,
2013-06-26 18:22:00,81.5,19.8,29.77,ESE,113,1.8,2.2,1,0.00,,,0.01,WUHU216HW,2013-06-26 22:22:00,
2013-06-26 18:23:00,81.2,19.5,29.77,ESE,113,0.0,2.2,1,0.00,,,0.01,WUHU216HW,2013-06-26 22:23:00,
2013-06-26 18:25:00,81.2,19.5,29.77,ESE,113,0.0,2.2,1,0.00,,,0.01,WUHU216HW,2013-06-26 22:25:00,
2013-06-26 18:26:00,81.0,19.4,29.77,ESE,113,0.7,2.2,1,0.00,,,0.01,WUHU216HW,2013-06-26 22:26:00,
2013-06-26 18:28:00,80.6,19.1,29.77,SE,135,0.4,2.2,1,0.00,,,0.01,WUHU216HW,2013-06-26 22:28:00,
2013-06-26 18:29:00,80.6,19.1,29.77,SE,135,0.0,2.2,1,0.00,,,0.01,WUHU216HW,2013-06-26 22:29:00,
2013-06-26 18:30:00,80.6,19.1,29.77,ESE,113,0.4,2.2,1,0.00,,,0.01,WUHU216HW,2013-06-26 22:30:00,
2013-06-26 19:20:00,80.6,19.1,29.77,SW,225,0.4,0.4,1,0.00,,,0.01,WUHU216HW,2013-06-26 23:20:00,
2013-06-26 19:21:00,80.6,19.1,29.77,SW,225,0.4,0.4,1,0.00,,,0.01,WUHU216HW,2013-06-26 23:21:00,
2013-06-26 19:22:00,80.6,19.1,29.77,SW,225,0.4,0.4,1,0.00,,,0.01,WUHU216HW,2013-06-26 23:22:00,
2013-06-26 19:25:00,80.6,19.1,29.77,SW,225,0.4,0.4,1,0.00,,,0.01,WUHU216HW,2013-06-26 23:25:00,
2013-06-26 19:26:00,80.6,19.1,29.77,SW,225,0.4,0.4,1,0.00,,,0.01,WUHU216HW,2013-06-26 23:26:00,
2013-06-26 19:28:00,80.6,19.1,29.77,SW,225,0.4,0.4,1,0.00,,,0.01,WUHU216HW,2013-06-26 23:28:00,
2013-06-26 20:00:00,75.4,15.1,29.79,NNW,338,0.4,0.4,1,0.00,,,0.01,WUHU216HW,2013-06-27 00:00:00,
2013-06-26 20:01:00,75.2,14.9,29.78,NNW,338,0.0,0.4,1,0.00,,,0.01,WUHU216HW,2013-06-27 00:01:00,
2013-06-26 20:05:00,75.2,14.9,29.78,NNW,338,0.0,0.7,1,0.00,,,0.01,WUHU216HW,2013-06-27 00:05:00,
2013-06-26 20:06:00,75.2,14.9,29.78,NNW,338,0.0,0.7,1,0.00,,,0.01,WUHU216HW,2013-06-27 00:06:00,
2013-06-26 20:07:00,75.1,14.9,29.78,NNW,338,0.0,0.7,1,0.00,,,0.01,WUHU216HW,2013-06-27 00:07:00,
2013-06-26 20:11:00,75.1,14.9,29.78,NNW,338,0.0,0.7,1,0.00,,,0.01,WUHU216HW,2013-06-27 00:11:00,
2013-06-26 20:12:00,75.1,14.9,29.78,NNW,338,0.0,0.7,1,0.00,,,0.01,WUHU216HW,2013-06-27 00:12:00,
2013-06-26 20:13:00,74.9,14.7,29.78,NNW,338,0.4,0.7,1,0.00,,,0.01,WUHU216HW,2013-06-27 00:13:00,
2013-06-26 20:17:00,74.9,14.7,29.78,NNW,338,0.0,0.7,1,0.00,,,0.01,WUHU216HW,2013-06-27 00:17:00,
2013-06-26 20:18:00,74.9,14.7,29.78,NNW,338,0.0,0.7,1,0.00,,,0.01,WUHU216HW,2013-06-27 00:18:00,
2013-06-26 20:19:00,74.9,14.7,29.78,NNW,338,0.0,0.7,1,0.00,,,0.01,WUHU216HW,2013-06-27 00:19:00,
2013-06-26 20:21:00,74.9,14.7,29.78,NNW,338,0.0,0.4,1,0.00,,,0.01,WUHU216HW,2013-06-27 00:21:00,
2013-06-26 20:23:00,74.9,14.7,29.78,NNW,338,0.0,0.4,1,0.00,,,0.01,WUHU216HW,2013-06-27 00:23:00,
2013-06-26 20:24:00,74.9,14.7,29.78,NNW,338,0.0,0.4,1,0.00,,,0.01,WUHU216HW,2013-06-27 00:24:00,
2013-06-26 20:25:00,74.7,14.6,29.78,NNW,338,0.0,0.4,1,0.00,,,0.01,WUHU216HW,2013-06-27 00:25:00,
2013-06-26 20:26:00,74.7,14.6,29.78,North,0,0.0,0.4,1,0.00,,,0.01,WUHU216HW,2013-06-27 00:26:00,
2013-06-26 20:29:00,74.9,14.7,29.78,North,0,0.0,0.7,1,0.00,,,0.01,WUHU216HW,2013-06-27 00:29:00,
2013-06-26 20:30:00,74.9,14.7,29.78,North,0,0.0,0.7,1,0.00,,,0.01,WUHU216HW,2013-06-27 00:30:00,
2013-06-26 20:31:00,75.1,14.9,29.78,North,0,0.0,0.7,1,0.00,,,0.01,WUHU216HW,2013-06-27 00:31:00,
2013-06-26 20:32:00,75.1,14.9,29.78,North,0,0.0,0.7,1,0.00,,,0.01,WUHU216HW,2013-06-27 00:32:00,
2013-06-26 20:34:00,75.1,14.9,29.78,North,0,0.0,0.7,1,0.00,,,0.01,WUHU216HW,2013-06-27 00:34:00,
2013-06-26 20:36:00,75.2,14.9,29.78,North,0,0.0,0.7,1,0.00,,,0.01,WUHU216HW,2013-06-27 00:36:00,
2013-06-26 20:37:00,75.2,14.9,29.78,North,0,0.0,0.7,1,0.00,,,0.01,WUHU216HW,2013-06-27 00:37:00,
2013-06-26 20:38:00,75.1,14.9,29.78,North,0,0.0,0.7,1,0.00,,,0.01,WUHU216HW,2013-06-27 00:38:00,
2013-06-26 20:40:00,75.1,14.9,29.78,North,0,0.0,0.0,1,0.00,,,0.01,WUHU216HW,2013-06-27 00:40:00,
2013-06-26 20:42:00,75.2,14.9,29.78,North,0,0.0,0.0,1,0.00,,,0.01,WUHU216HW,2013-06-27 00:42:00,
2013-06-26 20:43:00,75.2,14.9,29.78,North,0,0.0,0.0,1,0.00,,,0.01,WUHU216HW,2013-06-27 00:43:00,
2013-06-26 20:45:00,75.2,14.9,29.78,North,0,0.4,0.4,1,0.00,,,0.01,WUHU216HW,2013-06-27 00:45:00,
2013-06-26 20:48:00,75.6,15.2,29.78,North,0,0.0,0.4,1,0.00,,,0.01,WUHU216HW,2013-06-27 00:48:00,
2013-06-26 20:49:00,75.6,15.2,29.78,North,0,0.0,0.4,1,0.00,,,0.01,WUHU216HW,2013-06-27 00:49:00,
2013-06-26 20:53:00,76.1,15.7,29.78,North,0,0.2,0.4,1,0.00,,,0.01,WUHU216HW,2013-06-27 00:53:00,
2013-06-26 20:54:00,76.1,15.7,29.78,North,0,0.4,0.7,1,0.00,,,0.01,WUHU216HW,2013-06-27 00:54:00,
2013-06-26 20:55:00,76.3,15.9,29.78,North,0,0.4,0.7,1,0.00,,,0.01,WUHU216HW,2013-06-27 00:55:00,
2013-06-26 20:59:00,76.3,15.9,29.79,NW,315,0.7,0.9,1,0.00,,,0.01,WUHU216HW,2013-06-27 00:59:00,
2013-06-26 21:00:00,76.3,15.9,29.79,NW,315,0.4,1.1,1,0.00,,,0.01,WUHU216HW,2013-06-27 01:00:00,
2013-06-26 21:04:00,76.7,16.1,29.79,NW,315,0.0,1.1,1,0.00,,,0.01,WUHU216HW,2013-06-27 01:04:00,
2013-06-26 21:05:00,76.7,16.1,29.79,NNW,338,0.0,1.1,1,0.00,,,0.01,WUHU216HW,2013-06-27 01:05:00,
2013-06-26 21:06:00,76.7,16.1,29.79,NNW,338,1.1,1.1,1,0.00,,,0.01,WUHU216HW,2013-06-27 01:06:00,
2013-06-26 21:09:00,76.9,16.2,29.79,SSW,203,0.0,1.1,1,0.00,,,0.01,WUHU216HW,2013-06-27 01:09:00,
2013-06-26 21:10:00,77.2,16.5,29.79,WSW,248,0.0,1.1,1,0.00,,,0.01,WUHU216HW,2013-06-27 01:10:00,
2013-06-26 21:11:00,77.0,16.4,29.79,WSW,248,0.2,1.1,1,0.00,,,0.01,WUHU216HW,2013-06-27 01:11:00,
2013-06-26 21:15:00,77.2,16.5,29.79,West,270,0.2,1.1,1,0.01,,,0.02,WUHU216HW,2013-06-27 01:15:00,
2013-06-26 21:16:00,77.0,16.4,29.79,West,270,0.4,1.1,1,0.01,,,0.02,WUHU216HW,2013-06-27 01:16:00,
2013-06-26 21:17:00,77.0,16.4,29.79,West,270,0.0,1.1,1,0.01,,,0.02,WUHU216HW,2013-06-27 01:17:00,
2013-06-26 21:21:00,77.4,16.7,29.79,NW,315,0.2,1.1,1,0.01,,,0.02,WUHU216HW,2013-06-27 01:21:00,
2013-06-26 21:22:00,77.4,16.7,29.79,NW,315,0.0,1.1,1,0.01,,,0.02,WUHU216HW,2013-06-27 01:22:00,
2013-06-26 21:23:00,77.0,16.4,29.79,NW,315,0.0,1.1,1,0.01,,,0.02,WUHU216HW,2013-06-27 01:23:00,
2013-06-26 21:27:00,76.9,16.2,29.79,NW,315,0.2,0.9,1,0.01,,,0.02,WUHU216HW,2013-06-27 01:27:00,
2013-06-26 21:28:00,76.7,16.1,29.79,NW,315,0.0,0.9,1,0.01,,,0.02,WUHU216HW,2013-06-27 01:28:00,
2013-06-26 21:29:00,76.9,16.2,29.79,NW,315,0.2,0.7,1,0.01,,,0.02,WUHU216HW,2013-06-27 01:29:00,
2013-06-26 21:32:00,77.0,16.4,29.79,NW,315,0.4,0.4,1,0.01,,,0.02,WUHU216HW,2013-06-27 01:32:00,
2013-06-26 22:35:00,77.0,16.4,29.79,NW,315,0.4,0.4,1,0.01,,,0.02,WUHU216HW,2013-06-27 02:35:00,
2013-06-26 22:36:00,77.0,16.4,29.79,NW,315,0.4,0.4,1,0.01,,,0.02,WUHU216HW,2013-06-27 02:36:00,
2013-06-26 22:40:00,77.0,16.4,29.79,NW,315,0.4,0.4,1,0.01,,,0.02,WUHU216HW,2013-06-27 02:40:00,
2013-06-26 22:41:00,77.0,16.4,29.79,NW,315,0.4,0.4,1,0.01,,,0.02,WUHU216HW,2013-06-27 02:41:00,
2013-06-26 23:00:00,75.8,15.4,29.79,East,90,0.0,0.0,1,0.00,,,0.09,WUHU216HW,2013-06-27 03:00:00,
2013-06-26 23:01:00,75.8,15.4,29.79,East,90,0.0,0.0,1,0.00,,,0.09,WUHU216HW,2013-06-27 03:01:00,
2013-06-26 23:05:00,75.8,15.4,29.79,East,90,0.0,0.0,1,0.00,,,0.09,WUHU216HW,2013-06-27 03:05:00,
2013-06-26 23:06:00,75.8,15.4,29.79,East,90,0.0,0.0,1,0.00,,,0.09,WUHU216HW,2013-06-27 03:06:00,
2013-06-26 23:10:00,75.8,15.4,29.79,East,90,0.0,0.0,1,0.00,,,0.09,WUHU216HW,2013-06-27 03:10:00,
2013-06-26 23:11:00,75.8,15.4,29.78,East,90,0.0,0.0,1,0.00,,,0.09,WUHU216HW,2013-06-27 03:11:00,
2013-06-26 23:12:00,75.8,15.4,29.78,East,90,0.0,0.0,1,0.00,,,0.09,WUHU216HW,2013-06-27 03:12:00,
2013-06-26 23:16:00,75.6,15.2,29.78,East,90,0.0,0.0,1,0.00,,,0.09,WUHU216HW,2013-06-27 03:16:00,
2013-06-26 23:17:00,75.6,15.2,29.78,East,90,0.0,0.0,1,0.00,,,0.09,WUHU216HW,2013-06-27 03:17:00,
2013-06-26 23:19:00,75.6,15.2,29.79,East,90,0.0,0.0,1,0.00,,,0.09,WUHU216HW,2013-06-27 03:19:00,
2013-06-26 23:21:00,75.6,15.2,29.78,East,90,0.0,0.0,1,0.00,,,0.09,WUHU216HW,2013-06-27 03:21:00,
2013-06-26 23:22:00,75.6,15.2,29.79,East,90,0.0,0.0,1,0.00,,,0.09,WUHU216HW,2013-06-27 03:22:00,
2013-06-26 23:23:00,75.6,15.2,29.78,East,90,0.0,0.0,1,0.00,,,0.09,WUHU216HW,2013-06-27 03:23:00,
2013-06-26 23:24:00,75.6,15.2,29.78,East,90,0.0,0.0,1,0.00,,,0.09,WUHU216HW,2013-06-27 03:24:00,
2013-06-26 23:26:00,75.4,15.1,29.79,East,90,0.0,0.0,1,0.00,,,0.09,WUHU216HW,2013-06-27 03:26:00,
2013-06-26 23:27:00,75.4,15.1,29.79,East,90,0.0,0.0,1,0.00,,,0.09,WUHU216HW,2013-06-27 03:27:00,
2013-06-26 23:29:00,75.4,15.1,29.79,East,90,0.0,0.0,1,0.00,,,0.09,WUHU216HW,2013-06-27 03:29:00,
2013-06-26 23:32:00,75.2,14.9,29.79,East,90,0.0,0.0,1,0.00,,,0.09,WUHU216HW,2013-06-27 03:32:00,
2013-06-26 23:34:00,75.2,14.9,29.79,East,90,0.0,0.0,1,0.00,,,0.09,WUHU216HW,2013-06-27 03:34:00,
2013-06-26 23:35:00,75.2,14.9,29.79,East,90,0.0,0.0,1,0.00,,,0.09,WUHU216HW,2013-06-27 03:35:00,
2013-06-26 23:36:00,75.2,14.9,29.78,East,90,0.0,0.0,1,0.00,,,0.09,WUHU216HW,2013-06-27 03:36:00,